Tracking 29747 objects as of 9-Oct-2024
HD Live streaming from Space Station
objects crossing your sky now

SL-14 DEB

Track SL-14 DEB now!
10-day predictions


NORAD ID: 45336
Int'l Code: 1991-056CA
Perigee: 1,117.6 km
Apogee: 1,192.7 km
Inclination: 82.6 °
Period: 108.3 minutes
Semi major axis: 7526 km
RCS: Unknown
Launch date: August 15, 1991
Source: Commonwealth of Independent States (former USSR) (CIS)
Launch site: PLESETSK MISSILE AND SPACE COMPLEX (PKMTR)

Note: This is SATELLITE DEBRIS
Your satellite tracking list
Your tracking list is empty




NASA's NSSDC Master Catalog

Two Line Element Set (TLE):
1 45336U 91056CA  24282.78875237  .00003869  00000-0  82434-2 0  9996
2 45336  82.5791 196.0446 0049885  85.0912 275.5910 13.29662679223809
Source of the keplerian elements: AFSPC